Weather History for Tel Aviv, Israel

Change the Weather History Date:

Friday, February 22, 2013

  Actual Average Record
Temperature  
Mean Temperature 64 °F -  
Max Temperature 78 °F 66 °F 85 °F (2014)
Min Temperature 50 °F 50 °F 42 °F (2008)
Degree Days  
Heating Degree Days 1    
Growing Degree Days 14 (Base 50)    
Moisture  
Dew Point 42 °F    
Average Humidity 46    
Maximum Humidity 76    
Minimum Humidity 21    
Precipitation  
Precipitation 0.00 in - - ()
Sea Level Pressure  
Sea Level Pressure 29.82 in    
Wind  
Wind Speed 4 mph ()    
Max Wind Speed 9 mph    
Max Gust Speed -    
Visibility 5.9 miles    
Events      
Averages and records for this station are not official NWS values.
T = Trace of Precipitation, MM = Missing Value Source: Averaged Metar Reports

Daily Weather History Graph

Daily Weather History Graph

Search for Another Location

Airport:

Trip Planner

Search our weather history database for the weather conditions in past years. The results will help you decide how hot, cold, wet, or windy it might be!

Date:

Astronomy

Feb. 22, 2013 Rise Set
Actual Time 6:15 AM IST 5:32 PM IST
Civil Twilight 5:50 AM IST 5:57 PM IST
Nautical Twilight 5:22 AM IST 6:25 PM IST
Astronomical Twilight 4:54 AM IST 6:54 PM IST
Moon 2:31 PM IST (2/22) 3:39 AM IST (2/22)
Length of Visible Light 12h 06m
Length of Day
11h 17m
Waxing Gibbous, 88% of the Moon is Illuminated
Feb 22
Waxing Gibbous
Feb 25
Full
Mar 4
Last Quarter
Mar 11
New
Mar 19
First Quarter

Hourly Weather History & Observations

Time (IST) Temp. Dew Point Humidity Pressure Visibility Wind Dir Wind Speed Gust Speed Precip Events Conditions
12:20 AM 51.8 °F 44.6 °F 76% 29.92 in - East 4.6 mph - N/A   Clear
12:50 AM 53.6 °F 42.8 °F 67% 29.92 in - East 6.9 mph - N/A   Clear
1:20 AM 51.8 °F 42.8 °F 71% 29.89 in - East 4.6 mph - N/A   Clear
1:50 AM 53.6 °F 37.4 °F 54% 29.86 in - NNE 4.6 mph - N/A   Clear
2:00 AM 55 °F 37 °F 39% 29.87 in 6 mi 3.5 mph - -  
2:20 AM 53.6 °F 39.2 °F 58% 29.86 in - Variable 2.3 mph - N/A   Clear
2:50 AM 51.8 °F 39.2 °F 62% 29.86 in - Variable 2.3 mph - N/A   Clear
3:20 AM 51.8 °F 42.8 °F 71% 29.86 in - Variable 2.3 mph - N/A   Clear
3:50 AM 55.4 °F 37.4 °F 51% 29.86 in - Variable 3.5 mph - N/A   Clear
4:20 AM 53.6 °F 39.2 °F 58% 29.86 in - Variable 3.5 mph - N/A   Clear
4:50 AM 51.8 °F 39.2 °F 62% 29.86 in - West 5.8 mph - N/A   Clear
5:20 AM 51.8 °F 39.2 °F 62% 29.86 in - West 5.8 mph - N/A   Clear
5:50 AM 53.6 °F 39.2 °F 58% 29.86 in 6.2 mi West 4.6 mph - N/A   Partly Cloudy
6:20 AM 50.0 °F 39.2 °F 66% 29.89 in 6.2 mi West 5.8 mph - N/A   Partly Cloudy
6:50 AM 53.6 °F 39.2 °F 58% 29.86 in 5.6 mi Variable 2.3 mph - N/A   Scattered Clouds
7:20 AM 53.6 °F 42.8 °F 67% 29.86 in 5.6 mi East 5.8 mph - N/A   Mostly Cloudy
7:50 AM 59.0 °F 41.0 °F 51% 29.86 in 5.6 mi Variable 2.3 mph - N/A   Mostly Cloudy
8:00 AM 58 °F 40 °F 39% 29.87 in 6 mi 2.3 mph - -  
8:20 AM 60.8 °F 41.0 °F 48% 29.86 in 6.2 mi Variable 1.2 mph - N/A   Mostly Cloudy
8:50 AM 62.6 °F 41.0 °F 45% 29.86 in 6.2 mi Variable 1.2 mph - N/A   Scattered Clouds
9:20 AM 68.0 °F 39.2 °F 35% 29.86 in 6.2 mi Variable 3.5 mph - N/A   Mostly Cloudy
9:50 AM 71.6 °F 41.0 °F 33% 29.83 in 6.2 mi Variable 2.3 mph - N/A   Mostly Cloudy
10:20 AM 77.0 °F 39.2 °F 26% 29.83 in 6.2 mi Variable 1.2 mph - N/A   Mostly Cloudy
10:50 AM 77.0 °F 39.2 °F 26% 29.83 in 6.2 mi Variable 1.2 mph - N/A   Mostly Cloudy
11:20 AM 77.0 °F 44.6 °F 32% 29.80 in 6.2 mi West 5.8 mph - N/A   Mostly Cloudy
11:50 AM 77.0 °F 42.8 °F 29% 29.80 in 6.2 mi Variable 2.3 mph - N/A   Mostly Cloudy
12:20 PM 75.2 °F 44.6 °F 34% 29.80 in 6.2 mi West 8.1 mph - N/A   Mostly Cloudy
12:50 PM 75.2 °F 44.6 °F 34% 29.80 in 6.2 mi West 8.1 mph - N/A   Mostly Cloudy
1:20 PM 71.6 °F 46.4 °F 41% 29.77 in 6.2 mi Variable 2.3 mph - N/A   Overcast
1:50 PM 71.6 °F 42.8 °F 35% 29.74 in 6.2 mi NE 4.6 mph - N/A   Overcast
2:00 PM 71 °F 42 °F 24% 29.75 in 6 mi NE 6.9 mph - -   Overcast
2:20 PM 71.6 °F 46.4 °F 41% 29.74 in 6.2 mi NE 5.8 mph - N/A   Mostly Cloudy
2:50 PM 75.2 °F 48.2 °F 38% 29.71 in 6.2 mi ENE 9.2 mph - N/A   Mostly Cloudy
3:20 PM 77.0 °F 44.6 °F 32% 29.71 in 6.2 mi East 6.9 mph - N/A   Mostly Cloudy
3:50 PM 78.8 °F 39.2 °F 24% 29.71 in 6.2 mi SE 6.9 mph - N/A   Scattered Clouds
4:20 PM 78.8 °F 35.6 °F 21% 29.71 in 6.2 mi South 4.6 mph - N/A   Scattered Clouds
4:50 PM 77.0 °F 41.0 °F 28% 29.71 in 6.2 mi Variable 3.5 mph - N/A   Scattered Clouds
5:20 PM 75.2 °F 37.4 °F 25% 29.71 in 6.2 mi Variable 2.3 mph - N/A   Scattered Clouds
5:50 PM 71.6 °F 42.8 °F 35% 29.74 in 6.2 mi Variable 2.3 mph - N/A   Scattered Clouds
6:20 PM 68.0 °F 50.0 °F 52% 29.74 in 6.2 mi East 4.6 mph - N/A   Scattered Clouds
6:50 PM 68.0 °F 44.6 °F 43% 29.74 in 6.2 mi ESE 5.8 mph - N/A   Scattered Clouds
7:20 PM 66.2 °F 42.8 °F 43% 29.74 in 6.2 mi Variable 1.2 mph - N/A   Scattered Clouds
7:50 PM 66.2 °F 42.8 °F 43% 29.77 in - Variable 3.5 mph - N/A   Clear
8:00 PM 68 °F 42 °F 27% 29.75 in 6 mi 3.5 mph - -  
8:20 PM 64.4 °F 46.4 °F 52% 29.77 in - Variable 1.2 mph - N/A   Clear
8:50 PM 62.6 °F 42.8 °F 48% 29.80 in - WSW 5.8 mph - N/A   Clear
9:20 PM 64.4 °F 48.2 °F 56% 29.83 in - West 8.1 mph - N/A   Clear
9:50 PM 66.2 °F 48.2 °F 52% 29.83 in 5.6 mi Variable 2.3 mph - N/A   Clear
10:20 PM 66.2 °F 48.2 °F 52% 29.86 in 4.3 mi Variable 3.5 mph - N/A   Clear
10:50 PM 68.0 °F 46.4 °F 46% 29.86 in 3.7 mi Variable 3.5 mph - N/A   Clear
11:20 PM 62.6 °F 48.2 °F 59% 29.89 in 3.7 mi Variable 2.3 mph - N/A   Clear
11:50 PM 60.8 °F 48.2 °F 63% 29.86 in 3.7 mi South 4.6 mph - N/A   Clear